Zurück zum Katalog

STARLINK-11100

AktivKommunikationVLEO
NORAD 59713·PAYLOAD·🇺🇸 United States

Gestartet May 10, 2024 von Vandenberg Space Force Base

Loading…

Nächste Überflüge (nächste 24 Stunden)

TLE

AktuellSource: CelesTrak SupGP

Epoche: Sep 14, 2026, 22:06 UTC

1 59713C 24088F   26257.92131944 -.00035246  00000+0 -29035-3 0  2572
2 59713  53.1571 113.5068 0001134  71.9396 234.4494 15.69726135    13

Verfolge STARLINK-11100 in Echtzeit mit AllMySat

Download on the App Store